CW0570 Weather Reports


Display with metric or nautical units.
time (UTC)temp
F
wind
direction
speed
MPH
gust
MPH
rain 1hr
in
rain 24hr
in
rain mn
in
humidity
%
barometer
mb
20260502163100 54 5 0.0 2.0 0.00 0.00 0.00 89 1014.1
20260502161556 53 263 0.0 1.0 0.00 0.00 0.00 89 1014.2
20260502151556 51 328 1.0 3.0 0.00 0.00 0.00 91 1014.0
20260502123041 51 66 0.0 0.0 0.00 0.00 0.00 93 1014.2
20260502121537 51 66 0.0 0.0 0.00 0.00 0.00 93 1014.3
20260502114533 51 66 0.0 0.0 0.00 0.00 0.00 93 1014.6
20260502113035 51 66 0.0 2.0 0.00 0.00 0.00 93 1014.7
20260502111531 51 66 0.0 2.0 0.00 0.00 0.00 93 1014.8
20260502110036 51 9 0.0 0.0 0.00 0.00 0.00 94 1014.8
20260502104528 51 9 0.0 2.0 0.00 0.00 0.00 94 1014.8
20260502103033 51 9 0.0 0.0 0.00 0.00 0.00 94 1014.9
20260502101543 51 9 0.0 0.0 0.00 0.00 0.00 94 1014.8
20260502091520 51 9 0.0 0.0 0.00 0.00 0.00 93 1015.1
20260502071505 51 9 0.0 0.0 0.00 0.00 0.00 92 1016.8
20260502070002 51 9 0.0 0.0 0.00 0.00 0.00 92 1016.9
20260502064600 51 9 0.0 0.0 0.00 0.00 0.00 91 1016.8
20260502063106 51 9 0.0 2.0 0.00 0.00 0.00 91 1016.9
20260502061608 51 9 0.0 0.0 0.00 0.00 0.00 91 1017.1
20260502054559 51 9 0.0 2.0 0.00 0.00 0.00 90 1017.4
20260502053057 51 9 0.0 2.0 0.00 0.00 0.00 90 1017.5
20260502051656 51 5 0.0 5.0 0.00 0.00 0.00 90 1017.6
20260502050056 52 25 1.0 4.0 0.00 0.00 0.00 90 1017.8
20260502044555 52 24 0.0 4.0 0.00 0.00 0.00 90 1017.9
20260502043103 52 336 1.0 6.0 0.00 0.00 0.00 90 1017.9
20260502041554 52 10 1.0 3.0 0.00 0.00 0.00 89 1017.8
20260502040058 53 5 0.0 2.0 0.00 0.00 0.00 89 1017.7
20260502034553 53 9 0.0 3.0 0.00 0.00 0.00 88 1017.5
20260502033053 53 5 0.0 2.0 0.00 0.00 0.00 88 1017.4
20260502031551 53 5 0.0 2.0 0.00 0.00 0.00 88 1017.3
20260502030057 53 5 0.0 2.0 0.00 0.00 0.00 88 1017.2
20260502024550 54 360 0.0 3.0 0.00 0.00 0.00 88 1016.9
20260502023107 54 11 0.0 2.0 0.00 0.00 0.00 88 1017.0
20260502021550 54 11 0.0 2.0 0.00 0.00 0.00 88 1017.0
20260502020103 54 11 0.0 5.0 0.00 0.00 0.00 88 1017.0
20260502014551 54 5 0.0 4.0 0.00 0.00 0.00 88 1017.1
20260502013101 54 9 0.0 3.0 0.00 0.00 0.00 88 1017.4
20260502011548 55 360 1.0 5.0 0.00 0.00 0.00 87 1017.1
20260502010047 55 9 2.0 8.0 0.00 0.00 0.00 87 1017.1
20260502004604 56 238 1.0 5.0 0.00 0.00 0.00 86 1017.1
20260502003053 56 309 0.0 2.0 0.00 0.00 0.00 87 1017.0
20260502001604 56 239 0.0 3.0 0.00 0.00 0.00 87 1017.0
20260502000048 56 217 0.0 2.0 0.00 0.00 0.00 86 1017.0
20260501234550 57 148 0.0 3.0 0.00 0.00 0.00 85 1017.2
20260501233054 58 258 0.0 5.0 0.00 0.00 0.00 84 1017.2
20260501231544 59 234 1.0 5.0 0.00 0.00 0.00 81 1017.0
20260501230044 60 128 1.0 8.0 0.00 0.00 0.00 80 1017.0
20260501224543 62 227 1.0 9.0 0.00 0.00 0.00 79 1017.0
20260501223042 62 224 2.0 8.0 0.00 0.00 0.00 79 1017.1
20260501221540 61 248 2.0 11.0 0.00 0.00 0.00 79 1017.3
20260501220109 61 212 3.0 14.0 0.00 0.00 0.00 79 1017.5
20260501214539 62 145 2.0 12.0 0.00 0.00 0.00 78 1017.5
20260501213038 62 165 1.0 9.0 0.00 0.00 0.00 79 1017.4
20260501211537 63 238 2.0 7.0 0.00 0.00 0.00 77 1017.5
20260501210049 63 53 1.0 7.0 0.00 0.00 0.00 75 1017.3
20260501204541 64 238 3.0 11.0 0.00 0.00 0.00 72 1017.3
20260501203037 65 278 1.0 8.0 0.00 0.00 0.00 73 1017.3
20260501201539 65 209 1.0 7.0 0.00 0.00 0.00 72 1017.5
20260501200030 63 33 0.0 7.0 0.00 0.00 0.00 73 1017.6
20260501194525 62 340 1.0 7.0 0.00 0.00 0.00 74 1017.9
20260501193036 62 15 3.0 10.0 0.00 0.00 0.00 76 1018.1
20260501191520 60 360 0.0 6.0 0.00 0.00 0.00 76 1018.4
20260501190022 60 360 1.0 5.0 0.00 0.00 0.00 79 1018.5
20260501184524 58 324 2.0 3.0 0.00 0.00 0.00 81 1018.6
20260501183012 57 350 0.0 2.0 0.00 0.00 0.00 81 1018.7
20260501181526 56 57 0.0 2.0 0.00 0.00 0.00 85 1018.8
20260501180006 55 269 1.0 3.0 0.00 0.00 0.00 84 1018.9
20260501174505 55 271 1.0 4.0 0.00 0.00 0.00 85 1019.1
20260501173007 55 248 0.0 3.0 0.00 0.00 0.00 85 1019.0
20260501171501 54 244 0.0 2.0 0.00 0.00 0.00 86 1019.0